Location: Unspecified
(46.2071°N, 0.0000°E)
Time: 21:05:24
(UTC+00:00)

Meteor 2-3 - Visible Passes

Search period start: 04 April 2026 00:00
Search period end: 14 April 2026 00:00
Orbit: 839 x 872 km, 81.2° (Epoch: 29 March)

Date Brightness Start Highest point End Pass type
(mag) Time Alt. Az. Time Alt. Az. Time Alt. Az.
4 Apr 5.8 20:15:48 10° NNW 20:21:06 44° W 20:26:21 10° SSW visible
5 Apr 5.7 20:05:06 10° NNW 20:10:26 47° W 20:15:44 10° SSW visible
6 Apr 5.6 19:54:23 10° NNW 19:59:47 49° W 20:05:06 10° SSW visible
7 Apr 5.6 19:43:41 10° NNW 19:49:07 52° W 19:54:29 10° S visible
8 Apr 5.5 19:32:58 10° NNW 19:38:27 55° W 19:43:50 10° S visible
9 Apr 5.4 19:22:17 10° NNW 19:27:46 58° W 19:33:12 10° S visible
10 Apr 5.3 19:11:34 10° NNW 19:17:06 61° W 19:22:33 10° S visible
